GFSSW_925_spd_231.txt.gz
Wind_Speed
15 14 14 13 12 11 10 9 8 8 8 8 9 10 12 15 18 12 7 10 7 14 13 12 14 18 18 7 10 6 3 7 17 14 2 8 10 9 10 11 7 6 10 16 16
17 15 13 13 12 12 11 10 9 8 8 7 8 9 12 16 17 13 17 13 10 10 9 10 11 12 6 7 5 4 2 11 17 12 7 3 7 13 9 14 11 7 11 26 18
20 19 16 13 12 12 12 11 10 10 9 8 9 10 12 14 5 7 11 16 12 6 8 10 18 8 7 7 9 9 8 16 19 10 9 5 10 5 7 11 15 23 17 15 13
25 22 20 17 14 13 12 12 11 11 10 10 10 11 14 2 3 3 10 13 9 6 4 9 8 6 5 8 9 6 13 13 15 10 6 4 5 10 8 10 26 27 24 17 7
28 26 24 21 17 14 13 13 13 13 12 11 11 11 6 3 9 5 5 9 7 6 9 9 9 7 8 8 9 7 11 9 8 8 9 6 5 9 28 29 24 20 21 16 17
29 29 27 24 21 16 13 13 14 15 14 13 10 11 2 5 11 6 7 8 10 11 15 17 9 9 6 6 4 6 6 3 6 10 5 5 1 8 23 27 25 25 21 20 20
31 30 29 28 25 19 14 13 13 14 11 11 7 6 6 12 11 9 11 10 12 21 14 19 6 8 9 9 10 7 6 7 7 7 1 0 5 14 25 28 25 24 20 19 19
32 32 31 30 28 22 15 13 13 13 12 8 5 1 7 10 11 11 12 14 9 9 13 8 11 7 4 7 7 3 5 5 11 8 4 10 4 12 22 27 23 22 18 17 16
34 33 33 31 29 24 17 14 14 13 10 4 3 5 8 6 8 11 12 14 12 9 7 6 4 5 8 5 6 5 8 9 11 12 6 9 8 20 20 23 19 16 16 16 14
35 35 34 32 30 26 19 15 14 14 5 4 7 5 8 10 9 15 7 7 4 6 5 5 3 3 5 1 7 5 6 7 8 6 7 12 10 10 17 23 17 15 15 15 14
35 36 36 33 31 25 19 5 3 0 5 9 7 5 8 12 8 4 9 5 9 4 6 8 2 7 13 11 3 6 7 9 5 9 10 13 9 8 17 19 18 15 13 13 12
36 37 37 36 33 22 11 4 10 12 5 16 18 19 28 9 7 10 13 6 7 8 8 6 11 12 1 6 7 8 7 9 4 7 7 11 8 9 13 11 17 16 13 12 8
37 37 39 38 32 15 12 17 22 26 3 14 14 13 8 3 10 10 11 10 10 9 10 11 8 4 5 6 2 5 5 7 6 3 1 10 4 12 12 17 16 14 13 10 8
38 37 39 43 12 9 8 9 16 20 3 7 10 16 8 7 7 18 15 9 9 9 8 6 4 5 1 5 5 2 8 9 6 5 2 5 4 6 11 13 13 13 11 11 9
38 37 39 31 18 7 13 15 5 3 3 8 8 8 10 8 6 6 4 4 8 8 2 6 3 5 2 4 8 4 9 7 6 8 6 10 5 2 8 9 12 10 11 8 8
39 37 42 13 12 19 18 15 3 1 6 7 8 6 7 9 6 6 5 2 7 6 7 6 1 2 4 6 6 6 4 6 5 2 3 10 4 5 5 8 8 10 10 9 8
41 38 35 15 8 6 14 7 1 4 4 9 13 12 10 9 9 8 7 6 4 1 4 8 7 4 7 5 7 5 4 3 4 3 6 6 7 1 10 11 13 12 11 9 8
42 36 16 18 12 11 14 3 5 10 9 3 13 13 10 9 9 8 7 6 8 3 3 3 6 6 5 5 4 6 2 3 3 3 4 6 3 2 4 9 7 12 9 7 7
38 23 10 11 10 6 3 3 6 6 5 7 7 10 8 10 7 7 8 4 3 5 4 5 5 6 7 6 4 6 4 3 2 5 5 5 3 3 6 9 12 10 9 7 3
30 11 11 10 9 4 1 6 7 12 16 6 6 2 6 10 7 6 8 8 7 8 8 2 3 6 1 5 5 8 5 5 4 2 3 2 3 6 7 7 7 8 7 7 6
6 4 4 15 11 2 4 6 11 15 9 3 6 8 9 5 4 3 8 9 7 7 6 3 3 5 7 6 4 5 4 4 3 2 1 2 2 6 13 11 11 10 9 8 5
10 3 10 15 2 3 5 6 8 15 6 2 5 6 7 8 1 2 5 4 5 7 4 3 3 2 4 10 1 4 4 1 5 5 1 3 3 4 13 12 11 10 11 8 9
6 4 8 12 3 5 6 14 18 4 4 4 5 7 5 6 4 9 6 5 7 6 3 1 0 2 7 8 4 4 5 4 3 3 1 3 4 7 10 10 9 13 9 8 8
3 4 3 1 4 4 7 12 15 7 4 7 6 6 4 4 3 2 8 3 7 4 5 5 1 5 6 7 1 3 6 4 5 4 4 4 6 4 8 10 9 9 9 9 10
3 2 2 4 5 11 7 8 11 7 5 2 4 5 7 0 3 4 9 9 7 5 3 4 1 2 5 7 11 14 2 5 5 5 5 2 7 6 8 10 9 8 8 10 12
3 4 6 7 8 8 7 6 8 12 6 4 6 7 7 4 5 4 6 4 5 2 4 2 0 3 6 10 12 11 7 4 6 5 2 9 8 7 7 8 10 9 10 12 12
12 13 4 6 7 6 5 7 11 8 10 9 6 3 7 8 9 8 9 7 7 8 6 7 4 2 4 7 10 8 2 4 4 4 6 4 8 7 8 10 8 8 10 11 9

GFSSW_925_spd_234.txt.gz
Wind_Speed
18 16 14 13 11 11 11 11 10 9 9 9 9 10 12 15 17 12 8 10 5 6 13 12 10 8 7 3 3 3 3 5 3 2 7 3 4 4 6 8 6 4 5 18 20
22 21 18 15 13 11 11 10 10 9 9 9 9 10 12 16 17 13 16 11 6 6 6 6 5 7 3 3 1 4 4 7 7 5 7 7 6 10 6 5 13 19 19 19 20
26 23 22 19 15 13 11 10 10 9 9 9 9 11 13 16 5 7 4 16 11 9 7 6 5 2 2 3 4 3 6 8 11 10 4 7 9 6 14 4 8 25 19 15 9
26 26 25 23 20 15 12 11 11 10 10 10 9 10 14 4 2 4 4 10 11 8 5 3 2 2 3 4 3 5 11 9 13 6 4 5 6 9 13 7 13 14 13 8 6
28 27 27 25 24 19 13 11 11 11 11 11 9 9 7 2 9 7 6 9 11 9 9 4 1 1 3 4 3 6 10 8 14 3 2 21 15 19 15 15 14 14 15 13 12
30 29 29 27 26 23 16 11 10 10 11 9 7 6 1 3 5 7 6 10 10 13 5 6 6 8 6 5 5 5 5 9 4 4 6 27 13 12 8 15 20 19 15 11 14
31 32 31 30 28 26 20 13 10 9 10 8 4 1 2 11 5 11 7 10 12 14 4 13 13 6 1 7 2 6 2 5 2 2 15 25 17 19 19 17 19 17 13 13 14
32 33 32 32 30 28 23 16 11 9 9 5 3 2 7 9 8 14 16 11 14 18 21 17 6 0 3 4 9 6 5 2 4 4 3 15 12 12 12 18 15 16 13 14 13
33 33 32 34 32 30 25 17 10 8 7 0 2 3 9 11 4 18 21 14 12 14 13 13 3 2 5 3 5 6 3 4 9 6 5 9 15 12 11 16 15 12 11 12 10
33 34 34 34 33 32 26 15 9 7 1 2 2 3 6 5 7 15 16 12 3 4 4 1 4 3 4 5 3 4 3 4 9 0 15 18 14 16 13 16 17 14 11 11 11
34 34 35 34 33 35 25 5 3 3 4 8 7 5 5 13 11 9 12 2 3 3 4 3 4 5 9 8 8 6 2 4 7 11 16 18 17 15 12 15 16 13 12 11 11
34 34 35 34 36 29 11 2 7 5 6 11 15 9 16 14 6 5 8 5 2 5 1 5 5 12 8 8 7 2 1 4 4 1 21 16 12 7 5 9 13 14 12 11 8
34 35 35 35 34 7 6 14 13 12 2 8 9 6 7 10 11 7 10 6 4 3 6 6 10 3 7 0 2 2 3 2 1 12 20 19 7 7 5 6 10 9 10 9 10
35 35 35 38 6 13 11 12 18 3 3 6 6 6 4 5 4 9 19 6 3 8 9 7 14 8 2 2 3 4 2 5 6 4 5 0 4 5 8 7 9 11 9 9 7
35 35 34 30 18 6 6 21 22 4 2 5 5 6 6 8 3 2 17 3 5 5 1 7 2 2 6 2 4 2 2 3 2 4 4 1 5 4 7 5 7 6 7 7 8
37 33 34 13 11 21 13 21 1 5 5 4 7 7 6 3 2 6 5 3 1 3 2 6 3 5 4 4 6 1 5 8 6 4 4 7 6 6 7 8 8 7 9 9 8
41 33 30 18 6 4 20 3 4 3 5 5 7 8 7 7 5 6 5 3 4 3 4 7 3 2 3 5 9 9 7 4 5 5 5 7 5 4 10 8 11 13 10 7 8
39 30 17 21 15 7 6 5 3 4 6 3 5 9 8 6 5 10 7 4 4 3 3 3 6 3 2 5 4 2 6 5 3 2 5 6 3 4 5 7 11 10 8 8 8
36 18 12 4 2 8 5 3 6 5 4 8 3 7 5 8 7 6 9 9 6 7 6 3 3 4 4 3 5 3 1 5 5 2 2 3 3 4 7 8 9 8 8 8 8
26 12 9 5 7 6 4 5 5 4 8 10 2 2 5 6 8 7 8 3 7 5 8 4 4 2 4 8 4 3 2 4 4 1 2 3 4 5 9 11 8 7 8 7 7
7 4 5 11 12 5 3 6 5 9 8 4 2 2 1 2 5 6 5 4 3 4 8 5 4 5 4 2 1 5 3 5 4 4 4 2 4 5 17 14 14 10 8 8 7
9 2 5 8 3 1 3 5 5 11 11 3 3 2 1 4 5 3 4 2 3 5 5 1 5 2 2 6 3 4 2 5 5 3 1 3 5 5 10 15 13 10 7 7 14
4 3 4 5 2 3 5 5 5 14 10 3 2 2 1 1 2 4 4 5 6 5 6 4 2 3 8 7 5 5 0 4 5 3 4 4 5 5 6 8 7 11 10 13 14
2 4 4 4 1 2 5 5 4 8 6 4 1 3 5 2 2 4 4 5 4 4 8 8 3 6 7 6 2 2 2 1 6 4 4 5 3 3 7 12 9 8 13 13 11
1 2 2 3 4 6 3 4 5 6 6 5 1 3 3 2 2 5 4 2 6 2 5 5 3 2 2 3 2 2 6 7 5 5 6 4 9 9 8 9 9 13 13 12 9
3 3 5 4 5 6 4 5 3 8 5 9 3 7 1 4 5 6 8 3 4 1 3 3 2 2 3 4 6 5 6 7 5 5 8 10 6 4 6 11 14 14 12 11 9
8 6 2 5 6 4 3 7 9 8 7 1 2 5 6 3 6 5 5 6 9 9 4 5 5 3 4 2 4 5 3 3 3 3 11 5 7 8 8 12 10 10 10 10 10

GFSSW_925_spd_237.txt.gz
Wind_Speed
22 20 17 15 13 12 12 11 10 10 10 10 10 11 12 15 19 15 7 9 1 3 6 11 8 4 2 2 2 4 4 1 5 4 4 4 3 5 9 5 3 1 3 13 17
23 23 22 19 17 13 12 11 10 10 10 10 10 11 13 17 19 12 14 10 9 3 2 3 2 4 3 1 2 5 4 9 8 5 1 1 4 7 4 5 8 11 15 16 12
25 25 24 23 21 17 13 11 11 10 10 9 10 11 13 16 5 7 6 12 11 5 4 2 1 1 2 1 2 4 6 5 8 6 2 2 6 3 15 6 5 20 14 8 10
27 27 27 25 23 21 16 12 11 10 10 9 9 10 13 5 1 2 4 5 15 7 4 3 3 3 2 1 3 1 7 6 12 6 2 7 8 6 5 7 14 13 10 14 11
27 28 27 27 25 23 20 14 11 10 10 10 9 8 6 3 8 5 3 6 12 9 4 4 2 3 2 2 1 4 6 6 8 10 6 17 14 9 14 17 12 16 16 12 11
29 29 29 28 27 25 23 16 11 10 9 8 6 4 1 3 4 6 6 8 9 11 4 7 5 5 3 3 4 3 5 6 9 10 12 20 4 6 8 13 15 15 13 11 12
29 30 30 28 28 27 25 20 11 9 8 7 4 2 2 11 4 4 8 6 13 10 4 8 4 4 4 4 3 4 4 3 11 6 7 14 8 7 12 12 13 14 11 10 10
30 30 30 30 29 28 26 22 11 7 6 4 5 2 7 4 6 9 13 11 10 13 15 16 8 4 3 2 7 3 4 3 6 10 6 6 6 6 8 11 10 11 10 9 7
31 30 31 31 31 30 27 20 10 5 3 3 4 2 9 9 7 17 19 11 4 9 13 14 1 1 6 4 5 6 2 3 4 9 7 4 12 7 6 8 8 7 7 7 7
33 31 32 31 31 32 28 15 3 1 5 3 1 3 7 3 5 7 16 20 7 2 4 3 5 3 4 4 3 2 4 4 5 2 7 9 8 12 6 9 7 6 6 5 7
33 33 33 31 30 33 23 1 2 1 3 8 6 4 4 5 5 5 13 7 4 6 1 3 4 4 7 5 3 2 2 6 7 6 9 11 16 10 7 8 6 5 5 5 5
34 34 33 32 34 26 5 0 1 3 7 10 10 7 17 3 5 6 5 5 3 3 1 5 5 10 5 5 6 3 4 4 10 11 12 14 12 6 6 4 4 5 5 4 3
35 35 34 32 30 1 12 6 5 14 1 7 6 5 6 10 7 9 8 3 3 1 3 5 9 3 2 2 4 2 2 1 7 14 15 16 6 5 2 3 5 4 4 4 6
35 35 35 34 5 12 10 2 18 7 4 6 4 7 5 5 5 9 14 6 1 7 4 6 5 6 3 3 5 4 3 9 12 7 6 5 4 5 7 5 6 6 6 6 5
37 36 33 26 17 5 2 15 10 3 3 2 3 4 5 8 3 4 7 5 5 4 3 7 4 7 5 1 4 3 3 2 4 4 5 3 4 2 8 6 7 7 7 6 6
38 36 35 11 10 16 8 16 5 5 6 4 6 5 6 3 3 2 3 3 3 2 1 6 4 3 5 3 4 4 5 8 5 3 2 1 5 5 9 9 8 6 7 7 7
41 37 30 17 6 1 12 3 4 3 5 3 5 5 6 5 3 4 5 4 4 3 2 4 3 2 3 5 5 9 7 3 4 4 5 4 4 4 11 6 14 13 10 8 8
42 35 17 19 5 12 3 5 3 4 6 5 2 5 8 6 5 5 4 3 3 4 2 3 4 3 1 4 4 4 6 5 4 3 4 5 1 2 4 4 11 10 8 7 7
40 18 10 4 11 12 5 3 7 6 3 6 4 5 5 5 7 5 8 6 8 8 6 4 2 3 5 3 4 3 3 3 6 3 3 1 3 1 4 8 12 10 8 8 7
27 12 7 1 15 8 4 6 5 4 5 3 2 4 6 1 5 5 8 4 4 6 5 6 4 2 3 6 6 4 5 3 3 2 3 3 3 4 6 9 11 10 12 8 8
7 4 10 12 9 5 3 6 5 4 5 3 4 2 2 3 5 7 8 2 3 4 1 5 5 4 3 2 4 2 2 6 4 4 4 1 5 5 13 16 18 14 9 10 11
9 2 3 5 3 1 3 5 3 7 2 5 4 4 4 2 2 3 5 2 4 7 6 1 5 3 2 5 4 3 4 5 5 4 1 3 5 2 9 14 13 9 7 8 9
3 3 5 3 2 2 5 4 5 5 5 4 3 2 1 2 3 2 3 4 5 4 7 6 2 3 6 6 5 2 2 4 5 3 5 5 5 5 7 9 7 9 10 11 11
2 4 4 4 2 3 3 5 4 4 5 6 6 3 3 1 2 3 3 6 5 4 8 8 3 6 7 5 3 3 2 4 5 3 4 6 4 3 6 11 9 11 11 12 10
2 2 1 3 3 4 2 5 6 6 5 7 2 2 4 3 2 4 3 3 6 5 5 5 4 2 2 3 2 3 5 2 7 6 6 6 9 8 8 10 12 13 12 12 9
3 3 5 3 4 4 5 5 4 5 3 5 2 2 3 5 6 7 7 2 5 3 3 4 2 2 1 1 1 3 6 7 5 4 2 4 3 4 5 10 12 13 13 11 9
8 5 1 4 5 2 2 5 4 7 7 5 3 3 3 3 4 8 6 6 9 8 3 4 5 3 3 4 4 5 6 4 3 4 7 5 6 7 8 12 12 12 12 11 10

GFSSW_925_spd_240.txt.gz
Wind_Speed
22 22 22 21 19 15 13 12 12 12 11 11 10 11 12 16 19 15 7 7 0 9 2 2 2 3 3 3 3 3 5 3 5 7 4 3 5 2 3 5 2 4 2 2 14
23 23 23 22 22 19 15 12 11 11 11 10 10 11 13 17 18 10 8 8 9 2 3 4 2 2 3 2 3 5 4 10 6 7 3 1 4 8 4 2 4 5 10 16 17
25 25 23 23 22 21 19 14 11 11 11 10 10 11 13 15 4 6 3 8 10 6 3 3 3 2 3 2 3 4 6 5 4 7 7 4 4 4 9 2 1 6 10 13 17
25 25 25 24 23 22 22 17 11 10 10 10 11 11 13 5 2 1 4 7 12 6 4 5 3 3 3 2 3 1 6 5 3 7 6 10 7 5 5 4 10 11 12 15 16
26 26 26 26 24 23 23 19 13 9 8 9 10 7 5 3 8 5 2 9 13 7 5 4 3 3 2 3 3 4 4 4 6 8 7 12 7 8 11 13 13 16 17 13 16
27 28 27 27 27 26 23 22 15 8 7 8 7 3 2 3 4 6 2 11 9 9 6 6 5 5 2 2 4 5 5 3 6 6 5 16 6 6 5 10 13 15 14 13 17
29 29 28 28 28 27 25 24 16 7 6 6 5 1 1 12 5 2 4 4 8 10 4 6 5 3 4 2 3 0 5 7 4 3 6 7 8 7 9 12 13 14 12 13 15
31 30 29 29 29 28 27 25 14 6 5 3 3 1 6 4 6 8 6 6 5 11 10 4 5 2 2 1 6 4 5 5 5 3 2 4 4 9 8 12 11 12 10 11 11
32 33 31 30 30 30 28 23 11 4 4 4 2 2 9 8 7 9 13 6 4 7 7 6 2 2 4 4 4 6 3 3 1 2 2 4 6 11 9 12 10 7 8 9 8
34 35 33 32 30 31 30 9 5 5 7 4 1 2 6 1 3 4 8 10 1 2 2 4 5 3 4 4 3 2 1 3 3 3 7 5 9 12 9 12 9 7 7 7 7
34 36 35 33 31 31 17 1 3 1 2 8 5 5 5 7 3 3 4 7 2 6 2 3 4 5 9 6 3 2 3 6 2 2 7 7 14 11 8 10 8 7 6 6 6
36 36 36 33 33 20 5 1 3 2 6 10 8 6 10 2 4 3 9 4 4 4 3 5 4 7 5 3 3 3 7 5 6 6 8 12 10 7 4 4 5 6 6 7 6
36 37 37 33 27 1 14 5 2 9 2 7 6 5 5 10 7 7 7 4 3 4 5 5 5 5 3 2 5 2 5 7 6 8 11 12 5 3 1 3 5 4 3 5 5
38 38 37 36 3 14 9 6 13 5 4 6 4 7 6 6 4 7 10 6 1 8 5 5 4 4 3 3 5 3 5 9 14 4 5 2 4 4 4 4 5 5 5 5 6
40 41 36 24 17 5 2 11 7 2 3 3 3 3 3 9 3 3 5 3 7 5 4 5 4 4 4 2 4 4 7 7 4 4 6 1 4 4 5 7 8 7 7 6 7
44 42 37 10 9 13 10 9 4 5 6 4 5 5 5 2 1 3 4 4 3 3 1 5 3 1 4 3 1 8 6 7 5 3 2 2 5 4 6 9 6 6 7 8 7
47 41 28 14 6 6 10 2 5 3 5 2 3 4 3 4 2 3 5 5 5 3 2 5 4 3 4 6 6 6 6 3 4 4 5 1 4 6 6 4 10 15 11 8 8
47 39 14 16 1 19 4 4 4 4 6 5 3 2 8 5 4 2 4 3 1 5 3 4 4 2 2 3 7 3 6 5 4 2 4 2 4 4 3 4 6 10 9 8 8
43 18 10 5 10 8 4 3 8 6 3 5 6 4 3 3 4 3 6 7 8 8 6 4 2 3 5 2 3 3 4 4 6 3 3 3 4 3 3 1 9 11 9 9 9
29 13 7 12 8 8 4 7 5 4 4 3 2 3 7 5 5 6 7 4 6 9 2 7 4 2 2 1 8 4 5 4 3 1 3 4 4 4 5 7 6 10 13 8 7
8 4 10 8 5 4 4 6 5 6 2 2 1 5 6 6 8 6 7 3 5 4 4 5 4 3 1 3 5 2 2 7 5 4 5 2 5 6 8 12 16 13 11 12 11
9 3 6 7 3 1 3 5 3 3 2 5 3 8 5 5 4 6 10 5 2 7 9 2 6 4 1 4 3 2 4 5 5 4 1 3 6 2 5 11 13 12 10 10 11
4 3 2 2 2 2 4 3 3 3 4 4 5 6 3 5 4 3 3 1 1 5 9 7 2 3 6 6 4 3 3 5 5 3 5 5 5 2 1 7 9 11 10 11 11
3 4 4 4 2 2 4 4 4 3 5 3 6 2 1 2 4 5 3 3 2 3 8 8 4 6 7 6 4 3 3 4 5 4 4 6 5 5 4 8 8 8 10 12 11
3 2 1 4 3 5 2 3 4 5 4 2 3 5 6 3 3 3 2 1 4 1 4 4 5 3 1 3 3 3 4 5 6 5 6 6 7 7 8 10 8 9 11 12 11
3 4 5 3 4 4 4 2 2 6 3 4 3 2 4 6 7 9 6 4 5 4 3 4 2 2 2 0 2 2 6 6 6 3 5 3 6 2 4 8 8 11 13 12 12
8 4 1 4 5 3 3 4 3 5 6 8 7 3 2 4 3 2 3 4 5 8 4 4 6 4 3 2 4 4 6 4 4 4 5 6 7 6 4 9 12 12 13 13 11

GFSSW_925_spd_246.txt.gz
Wind_Speed
21 20 20 20 19 19 18 17 13 10 10 10 10 10 11 13 15 7 12 7 7 12 9 7 6 7 8 7 7 4 10 10 9 8 10 7 6 6 6 13 9 6 12 12 12
23 22 21 20 20 19 18 18 16 12 10 10 10 10 12 15 13 14 9 9 9 16 10 13 10 10 9 9 6 10 12 15 1 6 8 8 6 11 9 13 15 15 14 14 13
23 23 21 21 21 20 20 18 17 15 11 10 10 11 12 12 8 6 3 10 14 13 6 8 7 10 9 8 9 11 12 4 7 8 7 7 11 6 13 11 12 14 13 14 14
23 24 24 22 22 21 21 20 18 17 11 10 9 10 10 5 1 4 2 14 14 8 8 9 10 11 10 10 9 8 7 6 5 8 7 7 12 11 3 15 17 13 12 13 12
24 25 26 23 23 22 21 21 19 18 12 9 8 7 5 7 1 2 1 16 15 10 10 10 11 9 10 8 10 11 7 7 5 5 9 12 11 14 15 14 16 16 14 13 11
25 26 26 26 24 24 22 21 21 18 11 8 7 5 6 9 3 1 9 14 11 11 8 10 5 3 6 7 10 5 4 5 5 10 11 13 18 7 8 13 14 13 13 12 12
28 28 28 28 26 25 24 23 21 16 10 7 6 2 8 7 2 4 10 10 8 7 8 4 2 9 6 8 5 8 9 9 8 12 12 17 11 9 13 12 14 13 12 11 11
30 30 31 30 28 26 26 24 18 11 7 6 4 3 6 3 5 7 9 7 6 6 1 1 3 3 7 5 6 10 9 12 10 12 11 15 14 11 11 13 12 11 10 10 10
32 33 31 32 29 28 26 18 8 2 4 5 3 6 5 4 6 11 12 6 9 6 4 2 5 4 7 12 11 9 12 10 10 5 13 15 16 13 11 11 10 10 9 9 9
33 34 33 32 30 30 22 3 2 5 3 2 5 6 7 8 7 8 12 9 7 8 7 7 7 9 11 11 12 13 7 8 12 9 10 11 14 14 11 10 11 10 9 8 8
35 34 34 33 32 29 7 3 6 6 8 9 2 4 5 3 4 10 10 13 9 9 12 11 10 12 14 14 5 2 7 8 7 2 10 8 12 12 11 10 10 11 10 10 10
36 36 35 32 32 13 2 5 3 6 8 14 15 13 9 2 5 10 13 13 10 12 8 8 13 9 4 6 9 6 8 10 6 4 9 10 9 9 11 11 12 11 11 11 11
36 38 36 32 22 1 10 9 2 9 7 7 12 12 13 13 11 14 16 15 12 12 11 14 7 5 12 11 12 10 12 12 8 10 2 9 10 13 13 10 11 12 11 11 12
38 39 35 35 3 10 6 2 4 7 5 9 8 7 11 12 11 12 20 12 8 12 12 9 4 8 11 10 15 11 6 9 12 14 5 15 4 16 16 15 15 15 13 13 12
40 40 34 21 15 5 3 4 8 4 5 6 7 5 10 20 13 13 17 11 13 11 7 7 11 12 12 12 13 10 10 11 14 6 9 15 7 10 16 17 20 18 15 14 13
42 38 32 6 7 12 12 9 4 6 6 5 7 10 15 19 9 12 12 10 6 8 10 4 1 8 3 5 5 13 12 10 7 5 10 8 7 8 11 16 18 18 17 15 15
41 38 19 6 2 2 5 5 6 8 3 7 7 10 17 15 13 16 16 17 12 12 12 8 10 6 13 12 14 11 13 8 8 7 1 4 5 7 3 2 6 19 19 17 15
40 25 9 7 4 7 5 7 10 1 10 2 2 7 15 17 16 14 17 17 17 12 11 12 11 13 7 9 11 14 9 7 4 4 3 5 5 4 6 2 5 5 17 18 16
35 9 2 4 6 5 7 13 7 10 2 5 5 10 14 16 15 17 17 18 17 14 8 9 9 7 3 4 4 10 9 5 3 1 8 1 4 10 7 5 8 8 16 18 17
19 7 5 5 7 9 8 17 14 3 4 4 9 3 13 17 15 19 18 17 16 17 12 7 8 9 6 7 5 4 10 5 7 4 6 5 6 4 8 9 9 11 15 17 17
6 5 5 9 6 6 10 17 17 7 5 4 3 4 3 8 20 16 16 8 19 17 11 5 8 9 8 10 12 6 8 1 4 4 5 6 4 6 2 1 8 11 14 16 17
8 3 3 3 5 4 10 12 5 13 11 8 5 6 8 8 12 20 20 18 11 14 16 11 7 12 15 4 3 4 5 8 6 6 3 6 10 5 5 4 4 6 12 15 15
8 4 1 3 5 6 4 10 11 13 14 12 11 6 6 7 5 16 18 8 9 15 15 10 8 8 6 5 5 9 8 5 2 2 8 8 4 8 8 7 7 9 12 14 15
5 4 2 2 1 6 7 11 8 5 11 14 16 15 16 14 10 6 14 6 9 13 6 11 11 14 11 13 14 14 12 12 10 6 9 9 12 6 9 9 8 10 13 14 15
3 4 4 4 1 10 6 6 8 5 4 7 10 15 16 15 15 13 10 7 7 8 8 8 13 15 15 6 10 13 14 14 13 12 10 12 12 10 8 6 8 10 13 15 16
5 4 6 7 8 9 3 3 8 8 5 5 7 9 9 14 12 8 11 9 8 11 11 7 9 11 10 9 10 12 11 12 12 11 12 13 15 11 5 3 8 11 14 15 16
8 3 3 5 4 5 1 5 5 10 4 5 8 12 9 6 11 12 9 3 2 6 11 10 9 12 11 10 9 9 11 12 10 8 9 11 6 4 3 5 8 10 12 14 15